QTR79Y OTHH-LFPG

Flight info

Callsign QTR79Y
Flight time 7h 21m
Altitude 28000
Route DATRI L564 BAT/N0519F290 L564 MIGMA/N0510F280 M550 MEVDO Y511 ITRUX/N0494F360 Y511 PMA Z712 WEJ L677 CVO L617 MENKU/N0480F380 L617 TANSA UL613 KOR DCT DIMIS DCT VAKSU DCT LABIN DCT OTKEK DCT VAKON DCT SRN DCT INVOP/N0484F390 DCT TERSI/N0486F380 DCT AOSTA DCT ORSUD DCT MOLUS DCT UNKIR DCT GIVRI DCT TINIL
Aircraft B77W/H-SDE1E2E3FGHIJ2J3J4J5M1RWXY/LB1D1

Departure

Time 2026-05-08 09:42
Airport Hamad International Airport (OTHH)

Arrival

Time 2026-05-08 17:03
Airport Charles de Gaulle International Airport (LFPG)
Time Latitude Longitude Altitude Speed Heading
2026-05-08 09:13 25.26530 51.61294 29 ft 0 kts 248°
2026-05-08 09:33 25.26535 51.61307 26 ft 4 kts 248°
2026-05-08 09:33 25.26546 51.61335 27 ft 4 kts 248°
2026-05-08 09:34 25.26556 51.61361 30 ft 3 kts 248°
2026-05-08 09:34 25.26566 51.61380 30 ft 4 kts 183°
2026-05-08 09:34 25.26588 51.61371 30 ft 4 kts 147°
2026-05-08 09:34 25.26604 51.61360 30 ft 1 kts 158°
2026-05-08 09:35 25.26607 51.61359 30 ft 0 kts 158°
2026-05-08 09:37 25.26565 51.61378 30 ft 13 kts 158°
2026-05-08 09:37 25.26438 51.61434 29 ft 26 kts 154°
2026-05-08 09:38 25.26416 51.61572 28 ft 19 kts 69°
2026-05-08 09:38 25.26464 51.61707 27 ft 19 kts 68°
2026-05-08 09:38 25.26513 51.61841 28 ft 19 kts 68°
2026-05-08 09:38 25.26476 51.61952 30 ft 17 kts 154°
2026-05-08 09:39 25.26366 51.62007 27 ft 17 kts 158°
2026-05-08 09:39 25.26255 51.62057 30 ft 17 kts 158°
2026-05-08 09:39 25.26143 51.62105 31 ft 18 kts 159°
2026-05-08 09:39 25.26029 51.62155 28 ft 18 kts 158°
2026-05-08 09:40 25.25887 51.62218 27 ft 29 kts 158°
2026-05-08 09:40 25.25697 51.62301 26 ft 30 kts 158°
2026-05-08 09:40 25.25509 51.62393 27 ft 30 kts 136°
2026-05-08 09:40 25.25535 51.62593 28 ft 27 kts 59°
2026-05-08 09:41 25.25697 51.62611 27 ft 26 kts 339°
2026-05-08 09:41 25.25906 51.62520 30 ft 43 kts 338°
2026-05-08 09:41 25.26369 51.62317 28 ft 102 kts 338°
2026-05-08 09:41 25.27207 51.61945 29 ft 155 kts 338°
2026-05-08 09:42 25.28307 51.61475 251 ft 175 kts 339°
2026-05-08 09:42 25.29429 51.60925 746 ft 180 kts 336°
2026-05-08 09:42 25.30554 51.60351 1348 ft 175 kts 340°
2026-05-08 09:42 25.31645 51.59806 2041 ft 172 kts 340°
2026-05-08 09:43 25.32783 51.59221 2350 ft 191 kts 339°
2026-05-08 09:43 25.34120 51.58732 2492 ft 212 kts 354°
2026-05-08 09:43 25.35634 51.58773 2900 ft 225 kts 10°
2026-05-08 09:43 25.37180 51.59388 3212 ft 242 kts 21°
2026-05-08 09:44 25.38713 51.60168 3830 ft 248 kts 25°
2026-05-08 09:44 25.40316 51.60962 4000 ft 256 kts 20°
2026-05-08 09:44 25.41995 51.61624 3985 ft 255 kts 17°
2026-05-08 09:44 25.43686 51.62188 3981 ft 253 kts 16°
2026-05-08 09:45 25.45372 51.62711 3987 ft 251 kts 15°
2026-05-08 09:45 25.47057 51.63217 3999 ft 252 kts 14°
2026-05-08 09:45 25.48766 51.63663 4019 ft 253 kts 12°
2026-05-08 09:45 25.50496 51.64069 4013 ft 255 kts 12°
2026-05-08 09:46 25.52240 51.64481 4005 ft 256 kts 12°
2026-05-08 09:46 25.53975 51.64895 4000 ft 256 kts 12°
2026-05-08 09:46 25.55720 51.65319 3996 ft 255 kts 13°
2026-05-08 09:46 25.57453 51.65740 3998 ft 255 kts 12°
2026-05-08 09:47 25.59168 51.66034 4041 ft 251 kts 357°
2026-05-08 09:47 25.60838 51.65490 4504 ft 258 kts 332°
2026-05-08 09:47 25.62221 51.64174 4977 ft 269 kts 310°
2026-05-08 09:47 25.63078 51.62302 5502 ft 280 kts 286°
2026-05-08 09:48 25.63163 51.60146 6111 ft 284 kts 259°
2026-05-08 09:48 25.62433 51.58124 6673 ft 282 kts 244°
2026-05-08 09:48 25.61538 51.56178 7010 ft 284 kts 243°
2026-05-08 09:48 25.60623 51.54204 7004 ft 290 kts 243°
2026-05-08 09:49 25.59702 51.52216 7011 ft 289 kts 243°
2026-05-08 09:49 25.58789 51.50236 7003 ft 287 kts 243°
2026-05-08 09:49 25.57890 51.48277 7001 ft 285 kts 244°
2026-05-08 09:49 25.57003 51.46309 7017 ft 286 kts 245°
2026-05-08 09:50 25.56199 51.44297 7508 ft 286 kts 247°
2026-05-08 09:50 25.55433 51.42294 8109 ft 287 kts 247°
2026-05-08 09:50 25.54658 51.40257 8709 ft 288 kts 246°
2026-05-08 09:50 25.53878 51.38209 9345 ft 287 kts 246°
2026-05-08 09:51 25.53096 51.36165 9919 ft 290 kts 246°
2026-05-08 09:51 25.52303 51.34101 10418 ft 296 kts 245°
2026-05-08 09:51 25.51462 51.31927 10560 ft 317 kts 245°
2026-05-08 09:51 25.50565 51.29613 10694 ft 338 kts 246°
2026-05-08 09:52 25.49610 51.27152 10832 ft 358 kts 245°
2026-05-08 09:52 25.48606 51.24565 11128 ft 372 kts 245°
2026-05-08 09:52 25.47572 51.21900 11714 ft 377 kts 245°
2026-05-08 09:52 25.46531 51.19221 12393 ft 382 kts 244°
2026-05-08 09:53 25.45479 51.16517 13097 ft 386 kts 245°
2026-05-08 09:53 25.44405 51.13759 13711 ft 392 kts 244°
2026-05-08 09:53 25.43322 51.10981 14385 ft 393 kts 244°
2026-05-08 09:53 25.42252 51.08237 15065 ft 396 kts 244°
2026-05-08 09:54 25.41153 51.05422 15614 ft 401 kts 244°
2026-05-08 09:54 25.40039 51.02574 16196 ft 405 kts 244°
2026-05-08 09:54 25.38922 50.99714 16907 ft 406 kts 243°
2026-05-08 09:54 25.37795 50.96833 17561 ft 409 kts 244°
2026-05-08 09:55 25.36657 50.93927 18125 ft 414 kts 244°
2026-05-08 09:55 25.35505 50.90990 18673 ft 417 kts 244°
2026-05-08 09:55 25.34352 50.88046 19265 ft 418 kts 244°
2026-05-08 09:55 25.33190 50.85086 19855 ft 420 kts 244°
2026-05-08 09:56 25.32417 50.83117 20209 ft 422 kts 244°
2026-05-08 09:56 25.31243 50.80128 20738 ft 426 kts 244°
2026-05-08 09:56 25.30060 50.77118 21284 ft 428 kts 244°
2026-05-08 09:56 25.28868 50.74087 21832 ft 431 kts 244°
2026-05-08 09:57 25.26462 50.67976 22883 ft 436 kts 245°
2026-05-08 09:57 25.25246 50.64893 23390 ft 439 kts 245°
2026-05-08 09:57 25.24022 50.61790 23790 ft 442 kts 245°
2026-05-08 09:58 25.22794 50.58679 24227 ft 443 kts 245°
2026-05-08 09:58 25.21560 50.55557 24703 ft 443 kts 245°
2026-05-08 09:58 25.20326 50.52435 25156 ft 444 kts 245°
2026-05-08 09:58 25.19089 50.49308 25581 ft 445 kts 245°
2026-05-08 09:59 25.17844 50.46165 26003 ft 447 kts 245°
2026-05-08 09:59 25.16597 50.43017 26407 ft 448 kts 245°
2026-05-08 09:59 25.15344 50.39857 26822 ft 450 kts 244°
2026-05-08 09:59 25.14084 50.36682 27215 ft 451 kts 244°
2026-05-08 10:00 25.12839 50.33549 27613 ft 452 kts 244°
2026-05-08 10:00 25.11572 50.30361 28000 ft 453 kts 244°
2026-05-08 10:00 25.10303 50.27169 28363 ft 455 kts 244°
2026-05-08 10:00 25.09030 50.23971 28707 ft 456 kts 244°
2026-05-08 10:01 25.07753 50.20766 29028 ft 457 kts 244°
2026-05-08 10:01 25.06469 50.17545 29341 ft 459 kts 244°
2026-05-08 10:01 25.05181 50.14316 29650 ft 460 kts 244°
2026-05-08 10:01 25.03891 50.11084 29948 ft 460 kts 244°
2026-05-08 10:02 25.02603 50.07861 30269 ft 459 kts 244°
2026-05-08 10:02 25.01317 50.04643 30623 ft 457 kts 244°
2026-05-08 10:02 25.00037 50.01444 30970 ft 455 kts 244°
2026-05-08 10:02 24.98761 49.98255 31301 ft 454 kts 244°
2026-05-08 10:03 24.97486 49.95075 31629 ft 453 kts 244°
2026-05-08 10:03 24.96215 49.91905 31962 ft 451 kts 244°
2026-05-08 10:03 24.94947 49.88744 32255 ft 451 kts 244°
2026-05-08 10:03 24.93679 49.85588 32533 ft 450 kts 244°
2026-05-08 10:04 24.92413 49.82438 32804 ft 450 kts 244°
2026-05-08 10:04 24.91147 49.79292 33090 ft 449 kts 244°
2026-05-08 10:04 24.89900 49.76194 33370 ft 448 kts 244°
2026-05-08 10:04 24.88636 49.73055 33637 ft 447 kts 243°
2026-05-08 10:05 24.87375 49.69926 33875 ft 447 kts 243°
2026-05-08 10:05 24.86111 49.66794 34095 ft 446 kts 243°
2026-05-08 10:05 24.84853 49.63676 34322 ft 445 kts 243°
2026-05-08 10:05 24.83595 49.60563 34539 ft 445 kts 243°
2026-05-08 10:06 24.82339 49.57456 34740 ft 444 kts 243°
2026-05-08 10:06 24.81082 49.54348 34952 ft 443 kts 243°
2026-05-08 10:06 24.79831 49.51257 35179 ft 442 kts 243°
2026-05-08 10:06 24.78581 49.48171 35424 ft 440 kts 243°
2026-05-08 10:07 24.77336 49.45099 35620 ft 440 kts 243°
2026-05-08 10:07 24.76089 49.42025 35772 ft 440 kts 243°
2026-05-08 10:07 24.73580 49.35852 35877 ft 442 kts 243°
2026-05-08 10:08 24.71079 49.29698 35898 ft 439 kts 243°
2026-05-08 10:08 24.68592 49.23589 35898 ft 436 kts 243°
2026-05-08 10:09 24.66117 49.17520 35900 ft 434 kts 242°
2026-05-08 10:09 24.63658 49.11501 35901 ft 434 kts 242°
2026-05-08 10:10 24.61181 49.05445 35905 ft 435 kts 242°
2026-05-08 10:10 24.58696 48.99377 35909 ft 436 kts 242°
2026-05-08 10:11 24.56199 48.93288 35906 ft 437 kts 242°
2026-05-08 10:11 24.53693 48.87186 35911 ft 438 kts 242°
2026-05-08 10:12 24.51179 48.81071 35909 ft 440 kts 242°
2026-05-08 10:12 24.48658 48.74948 35910 ft 440 kts 242°
2026-05-08 10:13 24.46144 48.68852 35915 ft 441 kts 242°
2026-05-08 10:13 24.43616 48.62727 35926 ft 441 kts 242°
2026-05-08 10:14 24.41083 48.56602 35919 ft 440 kts 242°
2026-05-08 10:14 24.38551 48.50485 35916 ft 440 kts 242°
2026-05-08 10:15 24.36025 48.44391 35923 ft 438 kts 242°
2026-05-08 10:15 24.33501 48.38311 35925 ft 438 kts 242°
2026-05-08 10:16 24.30975 48.32236 35925 ft 437 kts 242°
2026-05-08 10:16 24.28453 48.26179 35932 ft 437 kts 242°
2026-05-08 10:17 24.25930 48.20127 35937 ft 436 kts 242°
2026-05-08 10:17 24.23406 48.14079 35930 ft 437 kts 242°
2026-05-08 10:18 24.20875 48.08023 35938 ft 437 kts 242°
2026-05-08 10:18 24.18343 48.01973 35936 ft 437 kts 242°
2026-05-08 10:19 24.15825 47.95966 35942 ft 437 kts 242°
2026-05-08 10:20 24.12019 47.86900 35945 ft 437 kts 242°
2026-05-08 10:20 24.09479 47.80860 35973 ft 437 kts 242°
2026-05-08 10:21 24.06934 47.74815 35984 ft 437 kts 242°
2026-05-08 10:21 24.04391 47.68782 35995 ft 437 kts 242°
2026-05-08 10:22 24.01844 47.62748 35999 ft 437 kts 242°
2026-05-08 10:22 23.99296 47.56723 36004 ft 436 kts 242°
2026-05-08 10:23 23.96748 47.50703 35995 ft 436 kts 242°
2026-05-08 10:23 23.94199 47.44689 35989 ft 436 kts 242°
2026-05-08 10:24 23.91650 47.38681 35977 ft 436 kts 241°
2026-05-08 10:24 23.89115 47.32716 35962 ft 435 kts 241°
2026-05-08 10:25 23.86562 47.26716 35959 ft 435 kts 241°
2026-05-08 10:25 23.84008 47.20722 35968 ft 435 kts 241°
2026-05-08 10:26 23.81451 47.14729 35969 ft 435 kts 241°
2026-05-08 10:26 23.78891 47.08737 35971 ft 435 kts 241°
2026-05-08 10:27 23.76330 47.02747 35975 ft 435 kts 241°
2026-05-08 10:27 23.73766 46.96761 36006 ft 435 kts 242°
2026-05-08 10:28 23.71201 46.90780 35986 ft 435 kts 242°
2026-05-08 10:28 23.68634 46.84801 35981 ft 435 kts 242°
2026-05-08 10:29 23.66065 46.78826 35992 ft 434 kts 242°
2026-05-08 10:29 23.63503 46.72874 35998 ft 433 kts 242°
2026-05-08 10:30 23.60938 46.66924 35992 ft 433 kts 242°
2026-05-08 10:30 23.58371 46.60977 35996 ft 433 kts 241°
2026-05-08 10:31 23.55804 46.55038 36002 ft 433 kts 242°
2026-05-08 10:31 23.53238 46.49105 36005 ft 433 kts 242°
2026-05-08 10:32 23.50667 46.43170 36001 ft 433 kts 242°
2026-05-08 10:32 23.48110 46.37277 35989 ft 434 kts 242°
2026-05-08 10:33 23.45531 46.31339 35986 ft 433 kts 242°
2026-05-08 10:33 23.42948 46.25397 35982 ft 434 kts 242°
2026-05-08 10:34 23.40351 46.19434 35977 ft 435 kts 242°
2026-05-08 10:34 23.37754 46.13477 35973 ft 436 kts 242°
2026-05-08 10:35 23.35152 46.07517 35972 ft 436 kts 242°
2026-05-08 10:35 23.32550 46.01563 35967 ft 436 kts 242°
2026-05-08 10:36 23.29946 45.95612 35980 ft 435 kts 242°
2026-05-08 10:36 23.27345 45.89677 35964 ft 434 kts 242°
2026-05-08 10:37 23.24752 45.83765 35971 ft 432 kts 242°
2026-05-08 10:37 23.22182 45.77913 35971 ft 431 kts 242°
2026-05-08 10:38 23.19601 45.72044 35975 ft 430 kts 242°
2026-05-08 10:38 23.17020 45.66184 35970 ft 430 kts 242°
2026-05-08 10:39 23.14437 45.60325 35979 ft 430 kts 242°
2026-05-08 10:39 23.11851 45.54466 35979 ft 430 kts 242°
2026-05-08 10:40 23.09256 45.48595 35975 ft 431 kts 242°
2026-05-08 10:40 23.06664 45.42736 35977 ft 431 kts 242°
2026-05-08 10:41 23.04064 45.36867 35974 ft 431 kts 242°
2026-05-08 10:41 23.01460 45.30996 35973 ft 431 kts 242°
2026-05-08 10:42 22.98852 45.25123 35972 ft 432 kts 242°
2026-05-08 10:42 22.96683 45.20241 35957 ft 432 kts 242°
2026-05-08 10:43 22.94072 45.14371 35959 ft 431 kts 242°
2026-05-08 10:43 22.92324 45.08117 35973 ft 438 kts 256°
2026-05-08 10:44 22.91860 45.01489 35962 ft 447 kts 268°
2026-05-08 10:44 22.92346 44.94765 35974 ft 447 kts 269°
2026-05-08 10:45 22.92843 44.88038 35968 ft 447 kts 268°
2026-05-08 10:45 22.93291 44.81313 35966 ft 447 kts 268°
2026-05-08 10:46 22.93720 44.74594 35966 ft 446 kts 268°
2026-05-08 10:46 22.94350 44.67889 35975 ft 450 kts 274°
2026-05-08 10:47 22.95935 44.61262 35992 ft 458 kts 281°
2026-05-08 10:47 22.97992 44.54721 35979 ft 458 kts 282°
2026-05-08 10:48 23.00040 44.48189 35972 ft 457 kts 281°
2026-05-08 10:48 23.02063 44.41659 35987 ft 456 kts 281°
2026-05-08 10:49 23.04024 44.35287 35982 ft 456 kts 281°
2026-05-08 10:49 23.06043 44.28713 35987 ft 456 kts 281°
2026-05-08 10:50 23.08037 44.22213 35994 ft 456 kts 281°
2026-05-08 10:50 23.10043 44.15667 35980 ft 457 kts 281°
2026-05-08 10:51 23.12046 44.09107 35998 ft 458 kts 281°
2026-05-08 10:51 23.14051 44.02537 36009 ft 459 kts 280°
2026-05-08 10:52 23.16056 43.95967 35993 ft 457 kts 281°
2026-05-08 10:52 23.18052 43.89406 36002 ft 456 kts 280°
2026-05-08 10:53 23.20037 43.82868 36025 ft 455 kts 280°
2026-05-08 10:53 23.22017 43.76339 36017 ft 454 kts 280°
2026-05-08 10:54 23.23993 43.69811 36022 ft 454 kts 280°
2026-05-08 10:54 23.25951 43.63331 36030 ft 454 kts 280°
2026-05-08 10:55 23.27919 43.56812 36041 ft 454 kts 280°
2026-05-08 10:55 23.29881 43.50289 36044 ft 454 kts 279°
2026-05-08 10:56 23.31841 43.43757 36042 ft 454 kts 279°
2026-05-08 10:56 23.33800 43.37219 36064 ft 455 kts 279°
2026-05-08 10:57 23.35761 43.30663 36067 ft 455 kts 279°
2026-05-08 10:57 23.38696 43.20830 36089 ft 456 kts 279°
2026-05-08 10:58 23.40654 43.14257 36089 ft 457 kts 279°
2026-05-08 10:58 23.42592 43.07718 36099 ft 456 kts 279°
2026-05-08 10:59 23.44534 43.01137 36116 ft 456 kts 279°
2026-05-08 10:59 23.46472 42.94560 36102 ft 456 kts 279°
2026-05-08 11:00 23.48406 42.87989 36100 ft 455 kts 279°
2026-05-08 11:00 23.50335 42.81421 36106 ft 455 kts 279°
2026-05-08 11:01 23.52258 42.74866 36106 ft 454 kts 279°
2026-05-08 11:01 23.54192 42.68311 36106 ft 454 kts 279°
2026-05-08 11:02 23.57093 42.58488 36113 ft 454 kts 278°
2026-05-08 11:03 23.59022 42.51934 36106 ft 454 kts 278°
2026-05-08 11:03 23.60946 42.45383 36106 ft 454 kts 278°
2026-05-08 11:04 23.62868 42.38827 36116 ft 454 kts 278°
2026-05-08 11:04 23.64787 42.32268 36101 ft 454 kts 278°
2026-05-08 11:05 23.66702 42.25701 36087 ft 454 kts 278°
2026-05-08 11:05 23.68594 42.19130 36106 ft 454 kts 278°
2026-05-08 11:06 23.70482 42.12557 36098 ft 454 kts 278°
2026-05-08 11:06 23.72356 42.06030 36072 ft 454 kts 278°
2026-05-08 11:07 23.74242 41.99458 36066 ft 453 kts 278°
2026-05-08 11:07 23.76142 41.92895 36068 ft 453 kts 278°
2026-05-08 11:08 23.78049 41.86348 36065 ft 452 kts 278°
2026-05-08 11:08 23.79947 41.79808 36057 ft 451 kts 278°
2026-05-08 11:09 23.81833 41.73278 36057 ft 450 kts 278°
2026-05-08 11:09 23.83707 41.66750 36045 ft 449 kts 278°
2026-05-08 11:10 23.85559 41.60288 36040 ft 448 kts 278°
2026-05-08 11:10 23.87418 41.53795 36058 ft 447 kts 278°
2026-05-08 11:11 23.89267 41.47314 36036 ft 446 kts 278°
2026-05-08 11:11 23.91112 41.40837 36034 ft 446 kts 278°
2026-05-08 11:12 23.92952 41.34365 36049 ft 445 kts 278°
2026-05-08 11:12 23.94786 41.27904 36032 ft 445 kts 278°
2026-05-08 11:13 23.96617 41.21439 36016 ft 444 kts 278°
2026-05-08 11:13 23.98439 41.14991 36017 ft 444 kts 278°
2026-05-08 11:14 24.00260 41.08538 36020 ft 444 kts 279°
2026-05-08 11:14 24.02076 41.02089 36013 ft 444 kts 279°
2026-05-08 11:15 24.03890 40.95639 36004 ft 444 kts 279°
2026-05-08 11:15 24.05691 40.89219 36010 ft 444 kts 280°
2026-05-08 11:16 24.07514 40.82701 36006 ft 445 kts 280°
2026-05-08 11:16 24.09316 40.76253 36000 ft 446 kts 280°
2026-05-08 11:17 24.11129 40.69747 35991 ft 447 kts 280°
2026-05-08 11:17 24.12943 40.63232 35992 ft 448 kts 280°
2026-05-08 11:18 24.14756 40.56710 35986 ft 448 kts 280°
2026-05-08 11:18 24.16810 40.50234 35977 ft 454 kts 287°
2026-05-08 11:19 24.19724 40.44032 35983 ft 459 kts 290°
2026-05-08 11:19 24.22725 40.37844 35966 ft 460 kts 290°
2026-05-08 11:20 24.25702 40.31644 35969 ft 460 kts 290°
2026-05-08 11:20 24.28664 40.25438 35960 ft 460 kts 290°
2026-05-08 11:21 24.31626 40.19219 35965 ft 460 kts 290°
2026-05-08 11:21 24.34582 40.13005 35970 ft 459 kts 290°
2026-05-08 11:22 24.37535 40.06792 35963 ft 459 kts 290°
2026-05-08 11:22 24.40462 40.00623 35969 ft 459 kts 291°
2026-05-08 11:23 24.43400 39.94424 35955 ft 457 kts 291°
2026-05-08 11:23 24.46324 39.88249 35944 ft 455 kts 291°
2026-05-08 11:24 24.49231 39.82097 35946 ft 453 kts 291°
2026-05-08 11:24 24.52134 39.75950 35945 ft 452 kts 292°
2026-05-08 11:25 24.55857 39.70290 35947 ft 464 kts 306°
2026-05-08 11:25 24.60717 39.65528 35943 ft 474 kts 316°
2026-05-08 11:26 24.66088 39.61312 35951 ft 474 kts 317°
2026-05-08 11:26 24.71419 39.57146 35962 ft 473 kts 317°
2026-05-08 11:27 24.76763 39.52906 35952 ft 473 kts 317°
2026-05-08 11:27 24.82091 39.48645 35942 ft 474 kts 317°
2026-05-08 11:28 24.87425 39.44367 35949 ft 475 kts 317°
2026-05-08 11:28 24.92775 39.40076 35951 ft 475 kts 317°
2026-05-08 11:29 24.98118 39.35789 35943 ft 475 kts 317°
2026-05-08 11:29 25.02556 39.32223 35950 ft 475 kts 318°
2026-05-08 11:30 25.07885 39.27940 35936 ft 473 kts 318°
2026-05-08 11:30 25.13194 39.23664 35935 ft 471 kts 318°
2026-05-08 11:31 25.19279 39.18658 35953 ft 466 kts 313°
2026-05-08 11:31 25.23061 39.14431 35938 ft 459 kts 305°
2026-05-08 11:32 25.26779 39.08764 35932 ft 454 kts 299°
2026-05-08 11:32 25.30182 39.02877 35935 ft 455 kts 298°
2026-05-08 11:33 25.33564 38.97027 35928 ft 455 kts 299°
2026-05-08 11:33 25.36991 38.91140 35921 ft 455 kts 299°
2026-05-08 11:34 25.40425 38.85254 35927 ft 455 kts 300°
2026-05-08 11:34 25.43852 38.79377 35908 ft 454 kts 300°
2026-05-08 11:35 25.47267 38.73514 35895 ft 452 kts 300°
2026-05-08 11:35 25.50668 38.67665 35889 ft 451 kts 300°
2026-05-08 11:36 25.54056 38.61831 35898 ft 449 kts 301°
2026-05-08 11:36 25.57430 38.56012 35887 ft 448 kts 301°
2026-05-08 11:37 25.60772 38.50243 35887 ft 447 kts 301°
2026-05-08 11:37 25.64130 38.44441 35878 ft 447 kts 300°
2026-05-08 11:38 25.67481 38.38640 35881 ft 446 kts 300°
2026-05-08 11:38 25.70831 38.32834 35892 ft 448 kts 301°
2026-05-08 11:39 25.74186 38.27014 35879 ft 448 kts 301°
2026-05-08 11:39 25.77543 38.21182 35879 ft 449 kts 301°
2026-05-08 11:40 25.80902 38.15339 35876 ft 448 kts 301°
2026-05-08 11:40 25.84255 38.09502 35887 ft 447 kts 301°
2026-05-08 11:41 25.87571 38.03718 35881 ft 447 kts 301°
2026-05-08 11:41 25.90904 37.97898 35895 ft 446 kts 301°
2026-05-08 11:42 25.94232 37.92080 35901 ft 445 kts 302°
2026-05-08 11:42 25.97544 37.86279 35891 ft 444 kts 301°
2026-05-08 11:43 26.00115 37.80068 35915 ft 443 kts 290°
2026-05-08 11:43 26.01629 37.73433 35917 ft 444 kts 281°
2026-05-08 11:44 26.02513 37.66634 35914 ft 444 kts 281°
2026-05-08 11:44 26.03404 37.59848 35921 ft 444 kts 282°
2026-05-08 11:45 26.04324 37.53068 35916 ft 444 kts 282°
2026-05-08 11:45 26.05242 37.46280 35912 ft 444 kts 282°
2026-05-08 11:46 26.06144 37.39488 35918 ft 444 kts 282°
2026-05-08 11:46 26.07036 37.32744 35903 ft 444 kts 282°
2026-05-08 11:47 26.07933 37.25956 35902 ft 443 kts 282°
2026-05-08 11:47 26.08825 37.19178 35899 ft 443 kts 283°
2026-05-08 11:48 26.09714 37.12405 35902 ft 442 kts 283°
2026-05-08 11:48 26.10601 37.05638 35910 ft 442 kts 283°
2026-05-08 11:49 26.11480 36.98875 35885 ft 442 kts 283°
2026-05-08 11:49 26.12356 36.92120 35898 ft 441 kts 283°
2026-05-08 11:50 26.13229 36.85372 35889 ft 440 kts 283°
2026-05-08 11:50 26.14097 36.78630 35886 ft 440 kts 283°
2026-05-08 11:51 26.14961 36.71893 35901 ft 440 kts 283°
2026-05-08 11:51 26.15823 36.65154 35887 ft 440 kts 283°
2026-05-08 11:52 26.16682 36.58412 35880 ft 440 kts 283°
2026-05-08 11:52 26.17809 36.51822 35872 ft 431 kts 295°
2026-05-08 11:53 26.20547 36.45968 35885 ft 425 kts 307°
2026-05-08 11:53 26.24460 36.41096 35889 ft 422 kts 315°
2026-05-08 11:54 26.28601 36.36424 35915 ft 424 kts 316°
2026-05-08 11:54 26.32740 36.31710 35894 ft 426 kts 315°
2026-05-08 11:55 26.36874 36.26955 35885 ft 427 kts 315°
2026-05-08 11:55 26.41006 36.22184 35881 ft 427 kts 315°
2026-05-08 11:56 26.45133 36.17410 35888 ft 427 kts 315°
2026-05-08 11:56 26.49254 36.12639 35887 ft 427 kts 315°
2026-05-08 11:57 26.53368 36.07873 35888 ft 426 kts 315°
2026-05-08 11:57 26.57473 36.03111 35890 ft 425 kts 315°
2026-05-08 11:58 26.61570 35.98354 35889 ft 425 kts 315°
2026-05-08 11:58 26.65639 35.93623 35899 ft 424 kts 315°
2026-05-08 11:59 26.71770 35.86484 35889 ft 424 kts 315°
2026-05-08 11:59 26.75851 35.81727 35893 ft 424 kts 315°
2026-05-08 12:00 26.79929 35.76969 35896 ft 423 kts 315°
2026-05-08 12:00 26.84003 35.72211 35893 ft 423 kts 315°
2026-05-08 12:01 26.88076 35.67448 35900 ft 424 kts 315°
2026-05-08 12:01 26.92152 35.62676 35900 ft 424 kts 315°
2026-05-08 12:02 26.96235 35.57889 35899 ft 424 kts 315°
2026-05-08 12:02 27.00314 35.53102 35899 ft 425 kts 315°
2026-05-08 12:03 27.04394 35.48308 35907 ft 425 kts 315°
2026-05-08 12:03 27.08450 35.43537 35899 ft 425 kts 315°
2026-05-08 12:04 27.12530 35.38733 35898 ft 425 kts 315°
2026-05-08 12:04 27.16604 35.33930 35901 ft 424 kts 315°
2026-05-08 12:05 27.20674 35.29126 35907 ft 424 kts 315°
2026-05-08 12:05 27.24739 35.24323 35883 ft 424 kts 315°
2026-05-08 12:06 27.28803 35.19517 35902 ft 424 kts 315°
2026-05-08 12:06 27.32867 35.14704 35905 ft 424 kts 315°
2026-05-08 12:07 27.36931 35.09885 35897 ft 425 kts 315°
2026-05-08 12:07 27.40997 35.05058 35915 ft 425 kts 315°
2026-05-08 12:08 27.45044 35.00248 35898 ft 426 kts 315°
2026-05-08 12:08 27.49112 34.95409 35885 ft 425 kts 315°
2026-05-08 12:09 27.53264 34.90672 35895 ft 424 kts 318°
2026-05-08 12:09 27.57579 34.86129 35897 ft 425 kts 319°
2026-05-08 12:10 27.61903 34.81591 35902 ft 425 kts 319°
2026-05-08 12:10 27.66218 34.77035 35899 ft 425 kts 318°
2026-05-08 12:11 27.70528 34.72469 35889 ft 425 kts 318°
2026-05-08 12:11 27.74841 34.67892 35906 ft 426 kts 318°
2026-05-08 12:12 27.79156 34.63307 35920 ft 426 kts 318°
2026-05-08 12:12 27.83474 34.58715 35924 ft 427 kts 318°
2026-05-08 12:13 27.87797 34.54111 35932 ft 427 kts 318°
2026-05-08 12:13 27.92119 34.49504 35938 ft 427 kts 318°
2026-05-08 12:14 27.96434 34.44899 35932 ft 427 kts 318°
2026-05-08 12:14 28.00659 34.40175 35945 ft 428 kts 313°
2026-05-08 12:15 28.04437 34.34945 35945 ft 429 kts 311°
2026-05-08 12:15 28.08207 34.29698 35928 ft 429 kts 311°
2026-05-08 12:16 28.11980 34.24460 35961 ft 428 kts 311°
2026-05-08 12:16 28.15735 34.19254 35949 ft 430 kts 311°
2026-05-08 12:17 28.19519 34.14003 35963 ft 430 kts 311°
2026-05-08 12:17 28.23306 34.08743 35987 ft 433 kts 311°
2026-05-08 12:18 28.27121 34.03429 35979 ft 434 kts 311°
2026-05-08 12:18 28.30927 33.98126 35978 ft 432 kts 311°
2026-05-08 12:19 28.34718 33.92835 35956 ft 432 kts 311°
2026-05-08 12:19 28.37864 33.88440 35970 ft 431 kts 311°
2026-05-08 12:20 28.41642 33.83154 35974 ft 430 kts 311°
2026-05-08 12:20 28.45417 33.77869 35957 ft 430 kts 311°
2026-05-08 12:21 28.49176 33.72596 35949 ft 429 kts 311°
2026-05-08 12:21 28.52938 33.67322 35929 ft 430 kts 311°
2026-05-08 12:22 28.56701 33.62032 35965 ft 430 kts 311°
2026-05-08 12:22 28.60462 33.56738 35957 ft 430 kts 310°
2026-05-08 12:23 28.64202 33.51470 35954 ft 430 kts 310°
2026-05-08 12:23 28.67966 33.46168 35954 ft 431 kts 310°
2026-05-08 12:24 28.71733 33.40854 35963 ft 431 kts 310°
2026-05-08 12:24 28.75504 33.35528 35959 ft 432 kts 310°
2026-05-08 12:25 28.79280 33.30185 35952 ft 433 kts 310°
2026-05-08 12:25 28.83056 33.24836 35955 ft 433 kts 310°
2026-05-08 12:26 28.86811 33.19511 35956 ft 433 kts 310°
2026-05-08 12:26 28.90582 33.14155 35953 ft 433 kts 310°
2026-05-08 12:27 28.94352 33.08795 35959 ft 432 kts 310°
2026-05-08 12:27 28.98115 33.03437 35965 ft 432 kts 310°
2026-05-08 12:28 29.01877 32.98074 35964 ft 432 kts 310°
2026-05-08 12:28 29.05637 32.92706 35981 ft 433 kts 310°
2026-05-08 12:29 29.09394 32.87335 35962 ft 433 kts 310°
2026-05-08 12:29 29.13154 32.81954 35983 ft 433 kts 310°
2026-05-08 12:30 29.16914 32.76566 35993 ft 434 kts 310°
2026-05-08 12:30 29.20679 32.71163 36002 ft 434 kts 310°
2026-05-08 12:31 29.24421 32.65784 36000 ft 435 kts 310°
2026-05-08 12:31 29.28186 32.60368 36004 ft 435 kts 310°
2026-05-08 12:32 29.31966 32.54886 36009 ft 435 kts 309°
2026-05-08 12:32 29.35682 32.49460 36016 ft 435 kts 309°
2026-05-08 12:33 29.39409 32.44012 36026 ft 434 kts 309°
2026-05-08 12:33 29.43134 32.38569 36037 ft 433 kts 309°
2026-05-08 12:34 29.46855 32.33123 36032 ft 433 kts 309°
2026-05-08 12:34 29.50571 32.27677 36066 ft 433 kts 309°
2026-05-08 12:35 29.54294 32.22212 36073 ft 434 kts 309°
2026-05-08 12:35 29.58020 32.16737 36079 ft 435 kts 309°
2026-05-08 12:36 29.61753 32.11244 36063 ft 436 kts 309°
2026-05-08 12:36 29.65478 32.05755 36051 ft 436 kts 309°
2026-05-08 12:37 29.69208 32.00250 36072 ft 437 kts 309°
2026-05-08 12:37 29.72941 31.94734 36075 ft 437 kts 309°
2026-05-08 12:38 29.76673 31.89213 36088 ft 437 kts 309°
2026-05-08 12:38 29.80355 31.83694 36072 ft 437 kts 308°
2026-05-08 12:39 29.83980 31.78066 36065 ft 437 kts 307°
2026-05-08 12:39 29.87595 31.72436 36080 ft 437 kts 307°
2026-05-08 12:40 29.91220 31.66804 36076 ft 437 kts 308°
2026-05-08 12:40 29.94847 31.61172 36073 ft 437 kts 308°
2026-05-08 12:41 29.98475 31.55531 36057 ft 438 kts 307°
2026-05-08 12:41 30.02100 31.49883 36046 ft 438 kts 307°
2026-05-08 12:42 30.05729 31.44225 36053 ft 439 kts 307°
2026-05-08 12:42 30.09470 31.38654 36052 ft 439 kts 312°
2026-05-08 12:43 30.13858 31.33744 36050 ft 439 kts 317°
2026-05-08 12:43 30.18340 31.28989 36052 ft 440 kts 317°
2026-05-08 12:44 30.22858 31.24158 36045 ft 440 kts 317°
2026-05-08 12:44 30.27313 31.19373 36037 ft 440 kts 317°
2026-05-08 12:45 30.31793 31.14550 36023 ft 440 kts 317°
2026-05-08 12:45 30.36280 31.09713 36040 ft 440 kts 317°
2026-05-08 12:46 30.40766 31.04871 36051 ft 441 kts 317°
2026-05-08 12:46 30.45251 31.00024 36029 ft 441 kts 317°
2026-05-08 12:47 30.49735 30.95172 36069 ft 441 kts 316°
2026-05-08 12:47 30.54213 30.90319 36053 ft 440 kts 316°
2026-05-08 12:48 30.58686 30.85467 36068 ft 440 kts 316°
2026-05-08 12:48 30.63150 30.80617 36053 ft 439 kts 316°
2026-05-08 12:49 30.67602 30.75773 36051 ft 439 kts 316°
2026-05-08 12:49 30.72054 30.70924 36070 ft 438 kts 316°
2026-05-08 12:50 30.76498 30.66076 36062 ft 438 kts 316°
2026-05-08 12:50 30.80945 30.61219 36070 ft 438 kts 316°
2026-05-08 12:51 30.87610 30.53927 36076 ft 438 kts 316°
2026-05-08 12:52 30.92018 30.49096 36087 ft 437 kts 316°
2026-05-08 12:52 30.98659 30.41804 36094 ft 437 kts 316°
2026-05-08 12:53 31.03092 30.36930 36402 ft 438 kts 316°
2026-05-08 12:53 31.05295 30.34500 36688 ft 435 kts 315°
2026-05-08 12:53 31.07283 30.31852 36940 ft 433 kts 306°
2026-05-08 12:54 31.08928 30.28913 37199 ft 432 kts 301°
2026-05-08 12:54 31.10338 30.25817 37422 ft 432 kts 296°
2026-05-08 12:54 31.11411 30.22537 37548 ft 434 kts 290°
2026-05-08 12:54 31.12318 30.19164 37695 ft 435 kts 289°
2026-05-08 12:55 31.13200 30.15790 37901 ft 435 kts 289°
2026-05-08 12:55 31.14090 30.12421 38032 ft 434 kts 289°
2026-05-08 12:55 31.15912 30.05692 38119 ft 434 kts 290°
2026-05-08 12:56 31.17785 29.99022 38098 ft 429 kts 294°
2026-05-08 12:56 31.20407 29.92804 38107 ft 425 kts 301°
2026-05-08 12:57 31.23709 29.87121 38112 ft 423 kts 307°
2026-05-08 12:57 31.27180 29.81627 38125 ft 423 kts 307°
2026-05-08 12:58 31.30405 29.76502 38124 ft 423 kts 306°
2026-05-08 12:58 31.33875 29.70946 38129 ft 423 kts 306°
2026-05-08 12:59 31.37301 29.65438 38138 ft 423 kts 306°
2026-05-08 12:59 31.40758 29.59869 38141 ft 422 kts 306°
2026-05-08 13:00 31.44206 29.54308 38147 ft 422 kts 306°
2026-05-08 13:00 31.47653 29.48740 38147 ft 421 kts 306°
2026-05-08 13:01 31.51090 29.43179 38143 ft 421 kts 306°
2026-05-08 13:01 31.54521 29.37621 38144 ft 421 kts 306°
2026-05-08 13:02 31.57948 29.32063 38144 ft 420 kts 306°
2026-05-08 13:02 31.61358 29.26498 38146 ft 420 kts 305°
2026-05-08 13:03 31.64759 29.20915 38141 ft 420 kts 305°
2026-05-08 13:03 31.68154 29.15338 38163 ft 420 kts 304°
2026-05-08 13:04 31.71580 29.09794 38141 ft 420 kts 308°
2026-05-08 13:04 31.75587 29.04790 38139 ft 421 kts 316°
2026-05-08 13:05 31.80106 29.00389 38143 ft 422 kts 318°
2026-05-08 13:05 31.84666 28.96041 38138 ft 422 kts 318°
2026-05-08 13:06 31.89193 28.91701 38137 ft 423 kts 318°
2026-05-08 13:06 31.93767 28.87291 38141 ft 427 kts 318°
2026-05-08 13:07 31.98358 28.82854 38139 ft 426 kts 317°
2026-05-08 13:07 32.02152 28.79182 38156 ft 424 kts 317°
2026-05-08 13:08 32.06697 28.74778 38137 ft 422 kts 317°
2026-05-08 13:08 32.11221 28.70385 38140 ft 420 kts 317°
2026-05-08 13:09 32.15732 28.66001 38140 ft 420 kts 317°
2026-05-08 13:09 32.20244 28.61610 38149 ft 420 kts 317°
2026-05-08 13:10 32.24765 28.57203 38151 ft 422 kts 317°
2026-05-08 13:10 32.29298 28.52780 38152 ft 423 kts 317°
2026-05-08 13:11 32.33839 28.48342 38170 ft 425 kts 316°
2026-05-08 13:11 32.38403 28.43877 38159 ft 426 kts 316°
2026-05-08 13:12 32.42977 28.39397 38153 ft 427 kts 316°
2026-05-08 13:12 32.47525 28.34936 38142 ft 428 kts 316°
2026-05-08 13:13 32.52108 28.30434 38154 ft 428 kts 316°
2026-05-08 13:13 32.56698 28.25918 38152 ft 429 kts 316°
2026-05-08 13:14 32.61286 28.21399 38157 ft 429 kts 316°
2026-05-08 13:14 32.65873 28.16874 38155 ft 429 kts 316°
2026-05-08 13:15 32.70464 28.12340 38157 ft 429 kts 316°
2026-05-08 13:15 32.75043 28.07810 38158 ft 428 kts 316°
2026-05-08 13:16 32.79623 28.03273 38151 ft 428 kts 316°
2026-05-08 13:16 32.84199 27.98735 38158 ft 428 kts 316°
2026-05-08 13:17 32.88769 27.94195 38158 ft 428 kts 316°
2026-05-08 13:17 32.93341 27.89648 38159 ft 428 kts 316°
2026-05-08 13:18 32.97914 27.85093 38152 ft 429 kts 316°
2026-05-08 13:18 33.02485 27.80533 38149 ft 428 kts 316°
2026-05-08 13:19 33.07048 27.75976 38156 ft 427 kts 316°
2026-05-08 13:19 33.11602 27.71420 38159 ft 427 kts 316°
2026-05-08 13:20 33.16123 27.66892 38164 ft 427 kts 316°
2026-05-08 13:20 33.20667 27.62334 38160 ft 426 kts 316°
2026-05-08 13:21 33.25205 27.57776 38158 ft 426 kts 316°
2026-05-08 13:21 33.29740 27.53214 38167 ft 426 kts 315°
2026-05-08 13:22 33.34274 27.48647 38163 ft 426 kts 315°
2026-05-08 13:22 33.38803 27.44079 38167 ft 425 kts 315°
2026-05-08 13:23 33.43326 27.39510 38160 ft 425 kts 315°
2026-05-08 13:23 33.47812 27.34972 38161 ft 425 kts 315°
2026-05-08 13:24 33.52327 27.30398 38157 ft 424 kts 315°
2026-05-08 13:24 33.56832 27.25828 38158 ft 424 kts 315°
2026-05-08 13:25 33.61340 27.21249 38169 ft 424 kts 315°
2026-05-08 13:25 33.65843 27.16668 38161 ft 424 kts 315°
2026-05-08 13:26 33.70351 27.12075 38162 ft 424 kts 315°
2026-05-08 13:26 33.74851 27.07484 38161 ft 424 kts 315°
2026-05-08 13:27 33.79321 27.02916 38161 ft 425 kts 315°
2026-05-08 13:27 33.83854 26.98278 38163 ft 425 kts 315°
2026-05-08 13:28 33.88324 26.93698 38161 ft 425 kts 315°
2026-05-08 13:28 33.92828 26.89075 38163 ft 426 kts 315°
2026-05-08 13:29 33.97339 26.84440 38151 ft 426 kts 315°
2026-05-08 13:29 34.01881 26.79830 38161 ft 428 kts 316°
2026-05-08 13:30 34.06618 26.75442 38166 ft 430 kts 318°
2026-05-08 13:30 34.11393 26.71094 38167 ft 431 kts 317°
2026-05-08 13:31 34.16163 26.66700 38164 ft 431 kts 317°
2026-05-08 13:31 34.20893 26.62305 38174 ft 432 kts 317°
2026-05-08 13:32 34.25652 26.57867 38164 ft 432 kts 317°
2026-05-08 13:32 34.30417 26.53416 38158 ft 433 kts 317°
2026-05-08 13:33 34.35185 26.48956 38160 ft 434 kts 317°
2026-05-08 13:33 34.39968 26.44477 38159 ft 435 kts 317°
2026-05-08 13:34 34.44753 26.39988 38156 ft 436 kts 317°
2026-05-08 13:34 34.49548 26.35485 38179 ft 436 kts 317°
2026-05-08 13:35 34.54342 26.30975 38154 ft 436 kts 317°
2026-05-08 13:35 34.59140 26.26456 38152 ft 436 kts 317°
2026-05-08 13:36 34.63923 26.21942 38139 ft 435 kts 317°
2026-05-08 13:36 34.68693 26.17435 38148 ft 434 kts 317°
2026-05-08 13:37 34.73458 26.12925 38145 ft 434 kts 317°
2026-05-08 13:37 34.78216 26.08416 38146 ft 433 kts 317°
2026-05-08 13:38 34.82970 26.03902 38149 ft 433 kts 317°
2026-05-08 13:38 34.87721 25.99385 38142 ft 433 kts 317°
2026-05-08 13:39 34.92458 25.94876 38146 ft 432 kts 317°
2026-05-08 13:39 34.97188 25.90365 38143 ft 431 kts 317°
2026-05-08 13:40 35.01910 25.85854 38141 ft 431 kts 317°
2026-05-08 13:40 35.06621 25.81348 38149 ft 430 kts 317°
2026-05-08 13:41 35.11298 25.76865 38129 ft 430 kts 316°
2026-05-08 13:41 35.15994 25.72338 38145 ft 430 kts 316°
2026-05-08 13:42 35.20682 25.67815 38144 ft 429 kts 316°
2026-05-08 13:42 35.25371 25.63296 38133 ft 429 kts 316°
2026-05-08 13:43 35.30052 25.58793 38113 ft 428 kts 316°
2026-05-08 13:43 35.34720 25.54286 38123 ft 427 kts 316°
2026-05-08 13:44 35.39375 25.49785 38134 ft 426 kts 316°
2026-05-08 13:44 35.44031 25.45276 38119 ft 426 kts 316°
2026-05-08 13:45 35.48679 25.40769 38123 ft 425 kts 316°
2026-05-08 13:45 35.53317 25.36265 38118 ft 424 kts 316°
2026-05-08 13:46 35.57942 25.31768 38128 ft 424 kts 315°
2026-05-08 13:46 35.62536 25.27292 38136 ft 424 kts 315°
2026-05-08 13:47 35.67154 25.22784 38119 ft 424 kts 315°
2026-05-08 13:47 35.71776 25.18268 38112 ft 424 kts 315°
2026-05-08 13:48 35.76396 25.13746 38120 ft 425 kts 315°
2026-05-08 13:48 35.81028 25.09206 38110 ft 425 kts 315°
2026-05-08 13:49 35.85661 25.04658 38114 ft 425 kts 315°
2026-05-08 13:49 35.90287 25.00110 38117 ft 425 kts 314°
2026-05-08 13:50 35.94916 24.95551 38121 ft 426 kts 314°
2026-05-08 13:50 35.99547 24.90982 38117 ft 426 kts 314°
2026-05-08 13:51 36.04186 24.86401 38116 ft 427 kts 314°
2026-05-08 13:51 36.08831 24.81808 38106 ft 428 kts 314°
2026-05-08 13:52 36.13476 24.77211 38105 ft 428 kts 314°
2026-05-08 13:52 36.18125 24.72602 38095 ft 428 kts 314°
2026-05-08 13:53 36.22771 24.67988 38103 ft 428 kts 314°
2026-05-08 13:53 36.27374 24.63408 38103 ft 428 kts 314°
2026-05-08 13:54 36.32016 24.58783 38088 ft 428 kts 314°
2026-05-08 13:54 36.36655 24.54153 38107 ft 428 kts 314°
2026-05-08 13:55 36.41297 24.49512 38100 ft 429 kts 314°
2026-05-08 13:56 36.47485 24.43317 38105 ft 429 kts 314°
2026-05-08 13:56 36.52128 24.38654 38100 ft 429 kts 314°
2026-05-08 13:57 36.56780 24.33972 38098 ft 431 kts 314°
2026-05-08 13:57 36.61454 24.29260 38093 ft 434 kts 314°
2026-05-08 13:58 36.66150 24.24519 38092 ft 435 kts 314°
2026-05-08 13:58 36.70860 24.19757 38092 ft 437 kts 314°
2026-05-08 13:59 36.75584 24.14973 38087 ft 438 kts 314°
2026-05-08 13:59 36.80315 24.10174 38083 ft 438 kts 314°
2026-05-08 14:00 36.85048 24.05363 38095 ft 438 kts 315°
2026-05-08 14:00 36.89725 24.00609 38072 ft 430 kts 315°
2026-05-08 14:01 36.94345 23.95900 38085 ft 428 kts 315°
2026-05-08 14:01 36.98929 23.91228 38078 ft 428 kts 315°
2026-05-08 14:02 37.03539 23.86520 38075 ft 428 kts 314°
2026-05-08 14:02 37.08156 23.81797 38075 ft 429 kts 314°
2026-05-08 14:03 37.12787 23.77052 38077 ft 431 kts 314°
2026-05-08 14:03 37.17428 23.72288 38062 ft 432 kts 314°
2026-05-08 14:04 37.22084 23.67501 38071 ft 433 kts 314°
2026-05-08 14:04 37.26743 23.62704 38067 ft 434 kts 314°
2026-05-08 14:05 37.31408 23.57892 38060 ft 434 kts 314°
2026-05-08 14:05 37.36077 23.53070 38062 ft 435 kts 314°
2026-05-08 14:06 37.40752 23.48232 38061 ft 436 kts 314°
2026-05-08 14:06 37.45431 23.43381 38058 ft 436 kts 314°
2026-05-08 14:07 37.50120 23.38513 38055 ft 437 kts 314°
2026-05-08 14:07 37.54829 23.33612 38052 ft 440 kts 314°
2026-05-08 14:08 37.59527 23.28722 38037 ft 436 kts 314°
2026-05-08 14:08 37.64190 23.23854 38047 ft 439 kts 314°
2026-05-08 14:09 37.68892 23.18939 38035 ft 438 kts 314°
2026-05-08 14:09 37.73573 23.14044 38055 ft 436 kts 314°
2026-05-08 14:10 37.78228 23.09151 38044 ft 435 kts 314°
2026-05-08 14:10 37.82890 23.04256 38052 ft 436 kts 314°
2026-05-08 14:11 37.87563 22.99336 38041 ft 438 kts 314°
2026-05-08 14:11 37.92254 22.94389 38036 ft 440 kts 314°
2026-05-08 14:12 37.96973 22.89423 38037 ft 442 kts 315°
2026-05-08 14:12 38.01726 22.84433 38039 ft 445 kts 315°
2026-05-08 14:13 38.06501 22.79410 38030 ft 447 kts 315°
2026-05-08 14:13 38.11286 22.74364 38034 ft 448 kts 315°
2026-05-08 14:14 38.16058 22.69323 38030 ft 449 kts 315°
2026-05-08 14:14 38.20864 22.64236 38027 ft 449 kts 315°
2026-05-08 14:15 38.25667 22.59143 38033 ft 450 kts 315°
2026-05-08 14:15 38.30471 22.54039 38046 ft 450 kts 315°
2026-05-08 14:16 38.35277 22.48924 38027 ft 450 kts 315°
2026-05-08 14:16 38.40074 22.43811 38051 ft 449 kts 315°
2026-05-08 14:17 38.44869 22.38691 38035 ft 449 kts 315°
2026-05-08 14:17 38.49648 22.33577 38032 ft 447 kts 315°
2026-05-08 14:18 38.54382 22.28502 38031 ft 447 kts 315°
2026-05-08 14:18 38.59135 22.23398 38030 ft 446 kts 315°
2026-05-08 14:19 38.63890 22.18282 38028 ft 447 kts 315°
2026-05-08 14:19 38.68628 22.13179 38038 ft 444 kts 315°
2026-05-08 14:20 38.73349 22.08082 38039 ft 443 kts 314°
2026-05-08 14:20 38.78053 22.02992 38063 ft 442 kts 315°
2026-05-08 14:21 38.82768 21.97879 38020 ft 445 kts 314°
2026-05-08 14:21 38.87498 21.92747 38045 ft 445 kts 315°
2026-05-08 14:22 38.92238 21.87594 38042 ft 446 kts 314°
2026-05-08 14:22 38.96986 21.82421 38033 ft 448 kts 314°
2026-05-08 14:23 39.01699 21.77269 38015 ft 448 kts 314°
2026-05-08 14:23 39.06413 21.72119 38064 ft 442 kts 314°
2026-05-08 14:24 39.11116 21.66974 38032 ft 444 kts 314°
2026-05-08 14:24 39.15821 21.61815 38041 ft 445 kts 314°
2026-05-08 14:25 39.20536 21.56620 38031 ft 446 kts 314°
2026-05-08 14:25 39.25254 21.51430 38036 ft 446 kts 314°
2026-05-08 14:26 39.29970 21.46228 38027 ft 445 kts 314°
2026-05-08 14:26 39.34676 21.41024 38035 ft 448 kts 314°
2026-05-08 14:27 39.39437 21.35753 38043 ft 453 kts 314°
2026-05-08 14:27 39.44211 21.30458 38031 ft 455 kts 315°
2026-05-08 14:28 39.49011 21.25121 38048 ft 456 kts 314°
2026-05-08 14:28 39.53823 21.19753 38004 ft 456 kts 314°
2026-05-08 14:29 39.58639 21.14388 38047 ft 458 kts 314°
2026-05-08 14:29 39.63473 21.08976 38039 ft 459 kts 315°
2026-05-08 14:30 39.68324 21.03546 38047 ft 462 kts 315°
2026-05-08 14:30 39.73193 20.98083 38041 ft 463 kts 315°
2026-05-08 14:31 39.78056 20.92616 38046 ft 461 kts 315°
2026-05-08 14:31 39.82898 20.87161 38043 ft 460 kts 315°
2026-05-08 14:32 39.90134 20.78988 38034 ft 458 kts 315°
2026-05-08 14:32 39.94945 20.73541 38030 ft 458 kts 315°
2026-05-08 14:33 39.99751 20.68088 38006 ft 457 kts 315°
2026-05-08 14:33 40.04545 20.62639 38006 ft 457 kts 315°
2026-05-08 14:34 40.09312 20.57281 37996 ft 457 kts 316°
2026-05-08 14:34 40.14319 20.52137 38002 ft 459 kts 318°
2026-05-08 14:35 40.19387 20.47031 38008 ft 461 kts 318°
2026-05-08 14:35 40.24452 20.41862 37989 ft 462 kts 318°
2026-05-08 14:36 40.29505 20.36655 37991 ft 463 kts 318°
2026-05-08 14:36 40.34565 20.31416 37964 ft 464 kts 318°
2026-05-08 14:37 40.39620 20.26172 37977 ft 463 kts 318°
2026-05-08 14:37 40.44682 20.20912 37975 ft 464 kts 318°
2026-05-08 14:38 40.49749 20.15637 37983 ft 465 kts 318°
2026-05-08 14:38 40.54835 20.10331 37970 ft 468 kts 318°
2026-05-08 14:39 40.59930 20.05008 37966 ft 467 kts 318°
2026-05-08 14:39 40.65004 19.99693 37966 ft 465 kts 318°
2026-05-08 14:40 40.70061 19.94387 37933 ft 464 kts 318°
2026-05-08 14:40 40.75067 19.89125 37960 ft 463 kts 318°
2026-05-08 14:41 40.80094 19.83829 37966 ft 462 kts 318°
2026-05-08 14:41 40.85118 19.78526 37985 ft 463 kts 317°
2026-05-08 14:42 40.90153 19.73198 37985 ft 464 kts 318°
2026-05-08 14:42 40.94341 19.68759 37955 ft 464 kts 318°
2026-05-08 14:43 40.99383 19.63409 37998 ft 467 kts 317°
2026-05-08 14:43 41.04501 19.57968 37938 ft 475 kts 318°
2026-05-08 14:44 41.09592 19.52537 37958 ft 465 kts 317°
2026-05-08 14:44 41.14611 19.47173 37961 ft 462 kts 317°
2026-05-08 14:45 41.19598 19.41839 37956 ft 458 kts 318°
2026-05-08 14:45 41.24544 19.36536 37966 ft 456 kts 317°
2026-05-08 14:46 41.29503 19.31202 37978 ft 462 kts 317°
2026-05-08 14:46 41.34538 19.25778 37968 ft 468 kts 317°
2026-05-08 14:47 41.39612 19.20303 37987 ft 471 kts 318°
2026-05-08 14:47 41.44711 19.14791 37968 ft 471 kts 318°
2026-05-08 14:48 41.49750 19.09335 37973 ft 467 kts 318°
2026-05-08 14:48 41.54779 19.03875 37968 ft 464 kts 317°
2026-05-08 14:49 41.59766 18.98448 37970 ft 461 kts 317°
2026-05-08 14:49 41.64729 18.93036 37988 ft 459 kts 317°
2026-05-08 14:50 41.69671 18.87636 37979 ft 459 kts 317°
2026-05-08 14:50 41.74615 18.82223 37979 ft 459 kts 317°
2026-05-08 14:51 41.79561 18.76796 37986 ft 460 kts 317°
2026-05-08 14:51 41.84517 18.71348 37996 ft 462 kts 317°
2026-05-08 14:52 41.91993 18.63107 37973 ft 465 kts 317°
2026-05-08 14:53 41.96985 18.57592 37980 ft 465 kts 317°
2026-05-08 14:53 42.01834 18.51865 37983 ft 462 kts 311°
2026-05-08 14:54 42.05947 18.45261 37987 ft 460 kts 306°
2026-05-08 14:54 42.09920 18.38507 37984 ft 460 kts 306°
2026-05-08 14:55 42.13896 18.31767 37984 ft 459 kts 306°
2026-05-08 14:55 42.17882 18.25036 37978 ft 459 kts 306°
2026-05-08 14:56 42.21869 18.18306 37988 ft 459 kts 306°
2026-05-08 14:56 42.25846 18.11581 37999 ft 458 kts 306°
2026-05-08 14:57 42.29794 18.04887 37998 ft 458 kts 306°
2026-05-08 14:57 42.33759 17.98148 37997 ft 458 kts 306°
2026-05-08 14:58 42.37717 17.91407 37996 ft 457 kts 306°
2026-05-08 14:58 42.41675 17.84650 37992 ft 457 kts 306°
2026-05-08 14:59 42.45623 17.77893 38000 ft 457 kts 306°
2026-05-08 14:59 42.51532 17.67753 38016 ft 457 kts 306°
2026-05-08 15:00 42.55471 17.60975 38018 ft 457 kts 306°
2026-05-08 15:00 42.59402 17.54196 38018 ft 457 kts 306°
2026-05-08 15:01 42.63326 17.47412 38018 ft 457 kts 306°
2026-05-08 15:01 42.67224 17.40658 38021 ft 457 kts 306°
2026-05-08 15:02 42.71144 17.33850 38043 ft 457 kts 306°
2026-05-08 15:02 42.75059 17.27037 38046 ft 457 kts 306°
2026-05-08 15:03 42.78968 17.20217 38044 ft 457 kts 306°
2026-05-08 15:03 42.82874 17.13387 38061 ft 457 kts 305°
2026-05-08 15:04 42.86782 17.06538 38046 ft 457 kts 305°
2026-05-08 15:04 42.90682 16.99687 38057 ft 457 kts 305°
2026-05-08 15:05 42.94572 16.92837 38062 ft 457 kts 305°
2026-05-08 15:05 42.98460 16.85976 38069 ft 457 kts 305°
2026-05-08 15:06 43.02344 16.79105 38066 ft 456 kts 305°
2026-05-08 15:06 43.06219 16.72235 38065 ft 456 kts 305°
2026-05-08 15:07 43.10089 16.65358 38084 ft 456 kts 305°
2026-05-08 15:07 43.13953 16.58474 38085 ft 456 kts 305°
2026-05-08 15:08 43.17164 16.52741 38084 ft 456 kts 305°
2026-05-08 15:08 43.21648 16.44719 38078 ft 456 kts 304°
2026-05-08 15:09 43.25503 16.37803 38081 ft 456 kts 304°
2026-05-08 15:09 43.29353 16.30881 38102 ft 456 kts 304°
2026-05-08 15:10 43.33199 16.23950 38104 ft 456 kts 304°
2026-05-08 15:10 43.37036 16.17019 38109 ft 456 kts 304°
2026-05-08 15:11 43.40870 16.10075 38106 ft 456 kts 304°
2026-05-08 15:11 43.44701 16.03121 38108 ft 456 kts 304°
2026-05-08 15:12 43.48523 15.96168 38115 ft 456 kts 304°
2026-05-08 15:12 43.52344 15.89201 38124 ft 456 kts 304°
2026-05-08 15:13 43.56162 15.82220 38124 ft 456 kts 304°
2026-05-08 15:13 43.59977 15.75229 38128 ft 456 kts 304°
2026-05-08 15:14 43.63790 15.68225 38133 ft 456 kts 304°
2026-05-08 15:14 43.67578 15.61252 38153 ft 457 kts 304°
2026-05-08 15:15 43.71387 15.54223 38144 ft 457 kts 304°
2026-05-08 15:15 43.75192 15.47184 38147 ft 457 kts 303°
2026-05-08 15:16 43.78994 15.40133 38151 ft 457 kts 303°
2026-05-08 15:16 43.82790 15.33075 38152 ft 457 kts 303°
2026-05-08 15:17 43.86582 15.26010 38158 ft 457 kts 303°
2026-05-08 15:17 43.90365 15.18945 38166 ft 457 kts 303°
2026-05-08 15:18 43.94147 15.11861 38165 ft 457 kts 303°
2026-05-08 15:18 43.97924 15.04771 38168 ft 456 kts 303°
2026-05-08 15:19 44.01695 14.97676 38169 ft 456 kts 303°
2026-05-08 15:19 44.05438 14.90616 38180 ft 456 kts 303°
2026-05-08 15:20 44.09196 14.83512 38181 ft 456 kts 303°
2026-05-08 15:20 44.12951 14.76393 38180 ft 456 kts 303°
2026-05-08 15:21 44.16701 14.69269 38183 ft 456 kts 303°
2026-05-08 15:21 44.20448 14.62130 38183 ft 456 kts 303°
2026-05-08 15:22 44.24189 14.54988 38182 ft 456 kts 303°
2026-05-08 15:22 44.27926 14.47834 38190 ft 456 kts 303°
2026-05-08 15:23 44.31660 14.40669 38189 ft 457 kts 303°
2026-05-08 15:23 44.35394 14.33485 38199 ft 457 kts 303°
2026-05-08 15:24 44.39126 14.26290 38198 ft 458 kts 303°
2026-05-08 15:24 44.42860 14.19070 38199 ft 458 kts 303°
2026-05-08 15:25 44.46567 14.11886 38203 ft 458 kts 303°
2026-05-08 15:25 44.50296 14.04642 38206 ft 459 kts 302°
2026-05-08 15:26 44.54025 13.97377 38222 ft 459 kts 302°
2026-05-08 15:26 44.57755 13.90094 38229 ft 460 kts 302°
2026-05-08 15:27 44.61483 13.82795 38229 ft 460 kts 302°
2026-05-08 15:27 44.65212 13.75478 38231 ft 461 kts 302°
2026-05-08 15:28 44.68306 13.69391 38243 ft 461 kts 302°
2026-05-08 15:28 44.72032 13.62047 38105 ft 454 kts 302°
2026-05-08 15:29 44.75660 13.54876 38027 ft 454 kts 302°
2026-05-08 15:29 44.79341 13.47576 38043 ft 461 kts 302°
2026-05-08 15:30 44.83066 13.40171 38045 ft 465 kts 302°
2026-05-08 15:30 44.86816 13.32704 38036 ft 468 kts 302°
2026-05-08 15:31 44.90538 13.25275 38015 ft 459 kts 302°
2026-05-08 15:31 44.94201 13.17941 38024 ft 456 kts 302°
2026-05-08 15:32 44.97553 13.10396 38028 ft 452 kts 292°
2026-05-08 15:32 44.99817 13.02170 38032 ft 449 kts 282°
2026-05-08 15:33 45.01270 12.93599 38035 ft 449 kts 281°
2026-05-08 15:33 45.02652 12.84973 38031 ft 450 kts 281°
2026-05-08 15:34 45.04054 12.76319 38034 ft 452 kts 281°
2026-05-08 15:34 45.05472 12.67660 38041 ft 453 kts 281°
2026-05-08 15:35 45.06894 12.58975 38033 ft 453 kts 281°
2026-05-08 15:35 45.08309 12.50298 38037 ft 453 kts 281°
2026-05-08 15:36 45.09717 12.41610 38043 ft 452 kts 281°
2026-05-08 15:36 45.11114 12.32940 38047 ft 452 kts 281°
2026-05-08 15:37 45.12505 12.24262 38040 ft 452 kts 281°
2026-05-08 15:37 45.13888 12.15589 38049 ft 451 kts 280°
2026-05-08 15:38 45.15265 12.06908 38053 ft 451 kts 280°
2026-05-08 15:38 45.16634 11.98233 38057 ft 451 kts 280°
2026-05-08 15:39 45.17997 11.89553 38048 ft 451 kts 280°
2026-05-08 15:39 45.19354 11.80865 38043 ft 451 kts 280°
2026-05-08 15:40 45.20704 11.72173 38046 ft 451 kts 280°
2026-05-08 15:40 45.22047 11.63480 38050 ft 451 kts 280°
2026-05-08 15:41 45.23382 11.54786 38055 ft 451 kts 280°
2026-05-08 15:41 45.24711 11.46094 38065 ft 451 kts 280°
2026-05-08 15:42 45.26032 11.37403 38074 ft 450 kts 280°
2026-05-08 15:42 45.27345 11.28714 38069 ft 450 kts 280°
2026-05-08 15:43 45.28652 11.20019 38053 ft 450 kts 280°
2026-05-08 15:43 45.29953 11.11321 38052 ft 450 kts 280°
2026-05-08 15:44 45.31245 11.02631 38026 ft 450 kts 279°
2026-05-08 15:44 45.32533 10.93919 38023 ft 450 kts 279°
2026-05-08 15:45 45.33812 10.85216 38031 ft 450 kts 279°
2026-05-08 15:45 45.35085 10.76506 38022 ft 450 kts 279°
2026-05-08 15:46 45.36355 10.67780 38032 ft 450 kts 279°
2026-05-08 15:46 45.37696 10.59072 38030 ft 451 kts 282°
2026-05-08 15:47 45.39212 10.50460 38036 ft 451 kts 282°
2026-05-08 15:47 45.40735 10.41796 38023 ft 452 kts 282°
2026-05-08 15:48 45.42962 10.28767 38021 ft 452 kts 282°
2026-05-08 15:49 45.44432 10.20073 38018 ft 451 kts 282°
2026-05-08 15:49 45.45895 10.11379 38030 ft 451 kts 282°
2026-05-08 15:50 45.47355 10.02675 38027 ft 451 kts 282°
2026-05-08 15:50 45.48834 9.93998 38032 ft 451 kts 282°
2026-05-08 15:51 45.50331 9.85528 38048 ft 451 kts 282°
2026-05-08 15:51 45.51859 9.76847 38050 ft 451 kts 282°
2026-05-08 15:52 45.53373 9.68163 38021 ft 451 kts 282°
2026-05-08 15:52 45.54877 9.59471 38022 ft 451 kts 282°
2026-05-08 15:53 45.56371 9.50788 38025 ft 451 kts 282°
2026-05-08 15:53 45.57860 9.42094 38020 ft 451 kts 282°
2026-05-08 15:54 45.59342 9.33404 38036 ft 451 kts 282°
2026-05-08 15:54 45.60822 9.24678 38028 ft 451 kts 282°
2026-05-08 15:55 45.62292 9.15967 38028 ft 451 kts 282°
2026-05-08 15:55 45.64487 9.02885 38054 ft 451 kts 282°
2026-05-08 15:56 45.66035 8.94203 38061 ft 450 kts 284°
2026-05-08 15:56 45.67656 8.85555 38049 ft 449 kts 284°
2026-05-08 15:57 45.69254 8.76947 38049 ft 447 kts 284°
2026-05-08 15:57 45.70827 8.68350 38065 ft 446 kts 283°
2026-05-08 15:58 45.72388 8.59759 38069 ft 446 kts 284°
2026-05-08 15:58 45.73932 8.51226 38077 ft 446 kts 284°
2026-05-08 15:59 45.75489 8.42577 38086 ft 446 kts 283°
2026-05-08 15:59 45.77034 8.33959 38079 ft 447 kts 283°
2026-05-08 16:00 45.78566 8.25378 38093 ft 448 kts 284°
2026-05-08 16:00 45.79875 8.16656 38411 ft 447 kts 277°
2026-05-08 16:01 45.80174 8.12222 38679 ft 447 kts 273°
2026-05-08 16:01 45.80207 8.07760 38783 ft 448 kts 269°
2026-05-08 16:01 45.80108 8.03300 38915 ft 449 kts 268°
2026-05-08 16:01 45.79989 7.98805 38976 ft 452 kts 268°
2026-05-08 16:02 45.79756 7.89785 39069 ft 452 kts 268°
2026-05-08 16:02 45.79546 7.80826 39065 ft 449 kts 268°
2026-05-08 16:03 45.79340 7.71922 38957 ft 442 kts 268°
2026-05-08 16:03 45.79236 7.67546 38622 ft 436 kts 269°
2026-05-08 16:03 45.79132 7.63217 38154 ft 433 kts 269°
2026-05-08 16:04 45.78918 7.54544 38068 ft 440 kts 269°
2026-05-08 16:04 45.78766 7.45695 38005 ft 448 kts 272°
2026-05-08 16:05 45.80092 7.37050 38041 ft 451 kts 296°
2026-05-08 16:05 45.83965 7.29903 38030 ft 461 kts 319°
2026-05-08 16:06 45.89253 7.24742 38037 ft 464 kts 323°
2026-05-08 16:06 45.94587 7.19456 38032 ft 466 kts 321°
2026-05-08 16:07 45.99809 7.14117 37997 ft 455 kts 321°
2026-05-08 16:07 46.04916 7.08859 38031 ft 448 kts 321°
2026-05-08 16:08 46.09119 7.04534 37982 ft 446 kts 321°
2026-05-08 16:08 46.14196 6.99300 37986 ft 451 kts 321°
2026-05-08 16:09 46.19317 6.94003 38010 ft 455 kts 321°
2026-05-08 16:09 46.24487 6.88648 38012 ft 459 kts 321°
2026-05-08 16:10 46.29685 6.83251 38020 ft 461 kts 321°
2026-05-08 16:10 46.34879 6.77846 38001 ft 457 kts 321°
2026-05-08 16:11 46.40009 6.72497 38005 ft 453 kts 321°
2026-05-08 16:11 46.44647 6.66464 38005 ft 447 kts 307°
2026-05-08 16:12 46.48017 6.58952 38008 ft 445 kts 297°
2026-05-08 16:12 46.51054 6.51106 38002 ft 447 kts 298°
2026-05-08 16:13 46.54128 6.43299 38001 ft 448 kts 298°
2026-05-08 16:13 46.57226 6.35437 38008 ft 449 kts 298°
2026-05-08 16:14 46.60329 6.27537 38014 ft 450 kts 298°
2026-05-08 16:14 46.63428 6.19618 38000 ft 451 kts 298°
2026-05-08 16:15 46.66524 6.11683 38008 ft 450 kts 298°
2026-05-08 16:15 46.69609 6.03752 38011 ft 450 kts 298°
2026-05-08 16:16 46.72684 5.95824 38003 ft 449 kts 298°
2026-05-08 16:16 46.75749 5.87897 38001 ft 448 kts 298°
2026-05-08 16:17 46.78804 5.79978 37997 ft 447 kts 298°
2026-05-08 16:17 46.82488 5.72718 38010 ft 449 kts 315°
2026-05-08 16:18 46.87696 5.67658 38004 ft 455 kts 329°
2026-05-08 16:18 46.93292 5.63298 37998 ft 456 kts 328°
2026-05-08 16:19 46.98867 5.58830 37995 ft 457 kts 328°
2026-05-08 16:19 47.04438 5.54327 37998 ft 458 kts 328°
2026-05-08 16:20 47.10018 5.49807 37999 ft 459 kts 328°
2026-05-08 16:20 47.15611 5.45270 37999 ft 459 kts 328°
2026-05-08 16:21 47.21212 5.40717 37996 ft 460 kts 328°
2026-05-08 16:21 47.26806 5.36157 38017 ft 459 kts 328°
2026-05-08 16:22 47.32396 5.31595 37999 ft 459 kts 328°
2026-05-08 16:22 47.35176 5.29329 37752 ft 454 kts 328°
2026-05-08 16:22 47.37929 5.27083 37268 ft 449 kts 327°
2026-05-08 16:23 47.40642 5.24866 36809 ft 443 kts 327°
2026-05-08 16:23 47.43319 5.22675 36360 ft 437 kts 327°
2026-05-08 16:23 47.45958 5.20511 35958 ft 431 kts 327°
2026-05-08 16:23 47.48533 5.18396 35573 ft 426 kts 327°
2026-05-08 16:24 47.51105 5.16280 35163 ft 421 kts 327°
2026-05-08 16:24 47.53679 5.14162 34579 ft 412 kts 327°
2026-05-08 16:24 47.56174 5.12107 33997 ft 410 kts 327°
2026-05-08 16:24 47.58657 5.10042 33349 ft 409 kts 325°
2026-05-08 16:25 47.60928 5.07658 32693 ft 404 kts 317°
2026-05-08 16:25 47.63044 5.04923 32039 ft 398 kts 315°
2026-05-08 16:25 47.64893 5.02487 31420 ft 387 kts 316°
2026-05-08 16:25 47.66893 4.99883 30588 ft 379 kts 316°
2026-05-08 16:26 47.68853 4.97378 29682 ft 374 kts 316°
2026-05-08 16:26 47.70822 4.94895 28734 ft 368 kts 317°
2026-05-08 16:26 47.72763 4.92454 27784 ft 363 kts 317°
2026-05-08 16:26 47.74682 4.90038 26874 ft 360 kts 316°
2026-05-08 16:27 47.76576 4.87643 25981 ft 357 kts 316°
2026-05-08 16:27 47.78461 4.85255 25132 ft 355 kts 316°
2026-05-08 16:27 47.80341 4.82869 24483 ft 357 kts 316°
2026-05-08 16:27 47.82258 4.80428 23923 ft 368 kts 316°
2026-05-08 16:28 47.84214 4.77937 23282 ft 373 kts 316°
2026-05-08 16:28 47.86199 4.75410 22584 ft 376 kts 316°
2026-05-08 16:28 47.88194 4.72868 21898 ft 379 kts 316°
2026-05-08 16:28 47.90198 4.70315 21366 ft 378 kts 316°
2026-05-08 16:29 47.92194 4.67768 20868 ft 377 kts 316°
2026-05-08 16:29 47.94182 4.65230 20375 ft 376 kts 316°
2026-05-08 16:29 47.96159 4.62702 19929 ft 372 kts 316°
2026-05-08 16:29 47.98087 4.60235 19513 ft 369 kts 316°
2026-05-08 16:30 47.99863 4.57960 19140 ft 367 kts 316°
2026-05-08 16:30 48.01793 4.55483 18778 ft 363 kts 316°
2026-05-08 16:30 48.03691 4.53046 18475 ft 357 kts 316°
2026-05-08 16:30 48.05563 4.50640 18174 ft 352 kts 316°
2026-05-08 16:31 48.07400 4.48276 17830 ft 346 kts 316°
2026-05-08 16:31 48.09189 4.45971 17510 ft 341 kts 316°
2026-05-08 16:31 48.10974 4.43669 17194 ft 337 kts 316°
2026-05-08 16:31 48.12737 4.41392 16881 ft 333 kts 316°
2026-05-08 16:32 48.14480 4.39141 16564 ft 330 kts 316°
2026-05-08 16:32 48.16215 4.36896 16260 ft 327 kts 316°
2026-05-08 16:32 48.17930 4.34675 15942 ft 326 kts 316°
2026-05-08 16:32 48.19646 4.32450 15650 ft 327 kts 316°
2026-05-08 16:33 48.21377 4.30204 15364 ft 330 kts 316°
2026-05-08 16:33 48.23113 4.27952 15086 ft 330 kts 316°
2026-05-08 16:33 48.24851 4.25696 14797 ft 330 kts 316°
2026-05-08 16:33 48.26568 4.23411 14497 ft 329 kts 313°
2026-05-08 16:34 48.28081 4.20848 14216 ft 327 kts 306°
2026-05-08 16:34 48.29473 4.18179 14093 ft 320 kts 306°
2026-05-08 16:34 48.30838 4.15571 14039 ft 316 kts 306°
2026-05-08 16:34 48.32223 4.12995 14033 ft 318 kts 307°
2026-05-08 16:35 48.33632 4.10407 14029 ft 322 kts 307°
2026-05-08 16:35 48.35059 4.07797 14031 ft 324 kts 307°
2026-05-08 16:35 48.36489 4.05185 14025 ft 324 kts 307°
2026-05-08 16:35 48.37908 4.02594 14028 ft 324 kts 307°
2026-05-08 16:36 48.39339 3.99976 14019 ft 324 kts 307°
2026-05-08 16:36 48.40768 3.97357 14015 ft 324 kts 307°
2026-05-08 16:36 48.42192 3.94746 14015 ft 323 kts 307°
2026-05-08 16:36 48.43618 3.92128 14022 ft 322 kts 307°
2026-05-08 16:37 48.45041 3.89515 14024 ft 322 kts 307°
2026-05-08 16:37 48.46458 3.86906 14021 ft 322 kts 307°
2026-05-08 16:37 48.47872 3.84300 14020 ft 321 kts 307°
2026-05-08 16:37 48.49289 3.81691 14018 ft 321 kts 307°
2026-05-08 16:38 48.50702 3.79087 14020 ft 321 kts 307°
2026-05-08 16:38 48.52115 3.76478 14027 ft 321 kts 307°
2026-05-08 16:38 48.53529 3.73864 14023 ft 321 kts 307°
2026-05-08 16:38 48.54871 3.71176 14027 ft 320 kts 301°
2026-05-08 16:39 48.56069 3.68349 14037 ft 320 kts 299°
2026-05-08 16:39 48.57245 3.65497 14032 ft 321 kts 300°
2026-05-08 16:39 48.58440 3.62651 14029 ft 321 kts 300°
2026-05-08 16:39 48.59650 3.59809 14024 ft 322 kts 300°
2026-05-08 16:40 48.60864 3.56975 14027 ft 322 kts 301°
2026-05-08 16:40 48.62085 3.54126 14022 ft 323 kts 301°
2026-05-08 16:40 48.63334 3.51204 14051 ft 350 kts 301°
2026-05-08 16:40 48.64678 3.48058 14045 ft 360 kts 301°
2026-05-08 16:41 48.66042 3.44867 14035 ft 362 kts 301°
2026-05-08 16:41 48.67407 3.41673 14025 ft 361 kts 301°
2026-05-08 16:41 48.68744 3.38542 13999 ft 349 kts 301°
2026-05-08 16:42 48.71044 3.33150 14007 ft 321 kts 300°
2026-05-08 16:42 48.72227 3.30371 14004 ft 307 kts 300°
2026-05-08 16:42 48.73356 3.27715 14003 ft 293 kts 300°
2026-05-08 16:42 48.74442 3.25152 14030 ft 288 kts 300°
2026-05-08 16:43 48.75522 3.22597 14021 ft 288 kts 300°
2026-05-08 16:43 48.76599 3.20049 13991 ft 287 kts 300°
2026-05-08 16:43 48.77674 3.17506 13783 ft 286 kts 300°
2026-05-08 16:43 48.78745 3.14968 13428 ft 285 kts 300°
2026-05-08 16:44 48.79814 3.12435 13046 ft 284 kts 300°
2026-05-08 16:44 48.80877 3.09913 12686 ft 284 kts 300°
2026-05-08 16:44 48.81938 3.07396 12334 ft 282 kts 300°
2026-05-08 16:44 48.82992 3.04892 12003 ft 281 kts 300°
2026-05-08 16:45 48.84040 3.02401 11694 ft 279 kts 300°
2026-05-08 16:45 48.85162 3.00009 11339 ft 279 kts 308°
2026-05-08 16:45 48.86473 2.97834 10995 ft 279 kts 311°
2026-05-08 16:45 48.87816 2.95710 10676 ft 278 kts 311°
2026-05-08 16:46 48.89141 2.93586 10371 ft 277 kts 311°
2026-05-08 16:46 48.90452 2.91443 10061 ft 276 kts 310°
2026-05-08 16:46 48.91747 2.89303 9730 ft 275 kts 310°
2026-05-08 16:46 48.93029 2.87173 9396 ft 274 kts 310°
2026-05-08 16:47 48.94122 2.85363 9110 ft 273 kts 311°
2026-05-08 16:47 48.95396 2.83337 8788 ft 272 kts 313°
2026-05-08 16:47 48.96695 2.81303 8482 ft 270 kts 313°
2026-05-08 16:47 48.97971 2.79305 8205 ft 269 kts 313°
2026-05-08 16:48 48.99243 2.77305 7899 ft 268 kts 313°
2026-05-08 16:48 49.00481 2.75355 7717 ft 264 kts 312°
2026-05-08 16:48 49.01746 2.73361 7587 ft 261 kts 313°
2026-05-08 16:48 49.03014 2.71355 7518 ft 265 kts 313°
2026-05-08 16:49 49.03925 2.69913 7441 ft 268 kts 313°
2026-05-08 16:49 49.05203 2.67891 7339 ft 268 kts 313°
2026-05-08 16:49 49.06448 2.65918 7212 ft 268 kts 313°
2026-05-08 16:49 49.07688 2.63951 7137 ft 268 kts 313°
2026-05-08 16:50 49.08579 2.62537 7064 ft 267 kts 313°
2026-05-08 16:50 49.09852 2.60504 6960 ft 265 kts 310°
2026-05-08 16:50 49.10714 2.58088 6830 ft 260 kts 281°
2026-05-08 16:50 49.10787 2.55325 6783 ft 264 kts 267°
2026-05-08 16:51 49.10722 2.52480 6687 ft 270 kts 268°
2026-05-08 16:51 49.10668 2.49612 6559 ft 269 kts 268°
2026-05-08 16:51 49.10615 2.46768 6454 ft 267 kts 268°
2026-05-08 16:51 49.10562 2.43944 6347 ft 265 kts 268°
2026-05-08 16:52 49.10508 2.41139 6242 ft 263 kts 268°
2026-05-08 16:52 49.10455 2.38353 6124 ft 262 kts 268°
2026-05-08 16:52 49.10401 2.35575 6034 ft 263 kts 268°
2026-05-08 16:52 49.10347 2.32771 5930 ft 266 kts 268°
2026-05-08 16:53 49.10254 2.28079 5719 ft 266 kts 268°
2026-05-08 16:53 49.10198 2.25265 5611 ft 265 kts 268°
2026-05-08 16:53 49.10141 2.22459 5517 ft 263 kts 268°
2026-05-08 16:54 49.10085 2.19703 5406 ft 263 kts 268°
2026-05-08 16:54 49.10028 2.16910 5320 ft 265 kts 268°
2026-05-08 16:54 49.09968 2.14078 5223 ft 269 kts 268°
2026-05-08 16:54 49.09908 2.11234 5114 ft 267 kts 268°
2026-05-08 16:55 49.09558 2.08520 4978 ft 259 kts 241°
2026-05-08 16:55 49.08396 2.06552 4940 ft 247 kts 211°
2026-05-08 16:55 49.06820 2.05704 4818 ft 239 kts 184°
2026-05-08 16:55 49.05197 2.05932 4722 ft 234 kts 160°
2026-05-08 16:56 49.03773 2.07096 4636 ft 233 kts 139°
2026-05-08 16:56 49.02725 2.08931 4534 ft 228 kts 116°
2026-05-08 16:56 49.02099 2.11156 4452 ft 230 kts 110°
2026-05-08 16:56 49.01541 2.13400 4365 ft 222 kts 109°
2026-05-08 16:57 49.01004 2.15538 4279 ft 208 kts 109°
2026-05-08 16:57 49.00709 2.17558 4177 ft 187 kts 89°
2026-05-08 16:57 49.00769 2.19455 4082 ft 175 kts 86°
2026-05-08 16:57 49.00840 2.21285 3994 ft 173 kts 85°
2026-05-08 16:58 49.00918 2.22957 3996 ft 173 kts 84°
2026-05-08 16:58 49.01012 2.24807 3920 ft 179 kts 84°
2026-05-08 16:58 49.01110 2.26689 3706 ft 176 kts 84°
2026-05-08 16:58 49.01208 2.28538 3470 ft 173 kts 84°
2026-05-08 16:59 49.01304 2.30350 3224 ft 170 kts 85°
2026-05-08 16:59 49.01391 2.31979 3013 ft 166 kts 85°
2026-05-08 16:59 49.01480 2.33690 2801 ft 159 kts 84°
2026-05-08 16:59 49.01568 2.35354 2588 ft 158 kts 83°
2026-05-08 17:00 49.01658 2.37026 2398 ft 161 kts 83°
2026-05-08 17:00 49.01747 2.38695 2154 ft 154 kts 84°
2026-05-08 17:00 49.01829 2.40269 1950 ft 145 kts 84°
2026-05-08 17:00 49.01906 2.41751 1803 ft 143 kts 84°
2026-05-08 17:01 49.01985 2.43249 1607 ft 142 kts 84°
2026-05-08 17:01 49.02065 2.44731 1426 ft 138 kts 84°
2026-05-08 17:01 49.02136 2.46185 1198 ft 139 kts 86°
2026-05-08 17:01 49.02210 2.47647 1032 ft 139 kts 83°
2026-05-08 17:02 49.02293 2.49082 850 ft 140 kts 83°
2026-05-08 17:02 49.02362 2.50542 657 ft 136 kts 82°
2026-05-08 17:02 49.02446 2.51962 464 ft 135 kts 82°
2026-05-08 17:02 49.02518 2.53376 368 ft 126 kts 82°
2026-05-08 17:03 49.02579 2.54492 363 ft 81 kts 82°
2026-05-08 17:03 49.02607 2.55117 367 ft 29 kts 98°
2026-05-08 17:03 49.02553 2.55346 365 ft 19 kts 114°
2026-05-08 17:03 49.02513 2.55482 364 ft 3 kts 114°
2026-05-08 17:04 49.02503 2.55516 368 ft 4 kts 115°
2026-05-08 17:04 49.02464 2.55592 367 ft 16 kts 144°
2026-05-08 17:04 49.02345 2.55620 360 ft 18 kts 173°
2026-05-08 17:04 49.02222 2.55637 364 ft 18 kts 175°
2026-05-08 17:05 49.02101 2.55629 365 ft 18 kts 208°
2026-05-08 17:05 49.02061 2.55457 365 ft 18 kts 263°
2026-05-08 17:05 49.02051 2.55270 359 ft 18 kts 268°
2026-05-08 17:05 49.02039 2.55095 361 ft 14 kts 263°
2026-05-08 17:06 49.02030 2.54951 365 ft 14 kts 268°
2026-05-08 17:06 49.02026 2.54808 364 ft 14 kts 265°
2026-05-08 17:06 49.02018 2.54664 367 ft 14 kts 265°
2026-05-08 17:06 49.02011 2.54520 362 ft 14 kts 265°
2026-05-08 17:07 49.02002 2.54372 367 ft 15 kts 264°
2026-05-08 17:07 49.01983 2.54210 363 ft 16 kts 242°
2026-05-08 17:07 49.01886 2.54133 366 ft 17 kts 187°
2026-05-08 17:07 49.01791 2.54045 368 ft 17 kts 223°
2026-05-08 17:08 49.01710 2.53991 364 ft 10 kts 158°
2026-05-08 17:08 49.01674 2.54041 365 ft 3 kts 139°
2026-05-08 17:08 49.01662 2.54057 368 ft 1 kts 136°
2026-05-08 17:08 49.01657 2.54065 367 ft 1 kts 135°
2026-05-08 17:09 49.01655 2.54068 366 ft 0 kts 135°
2026-05-08 17:09 49.01655 2.54069 366 ft 0 kts 135°